Location: Home
(42.5358°N, 72.7383°W)
Time: 22:16:10
(UTC-05:00)

Transit 2A Rocket - Pass Details

Date: 14 November 2025
Orbit: 580 x 903 km, 66.7° (Epoch: 14 December)

Event Time Altitude Azimuth Distance (km) Brightness Sun altitude
Rises 17:11:12 0° 267° (W) 3,256 10.1 -8.1°
Reaches altitude 10° 17:14:35 10° 290° (WNW) 2,399 8.4 -8.7°
Maximum altitude 17:17:50 16° 326° (NW) 2,092 7.5 -9.2°
Drops below altitude 10° 17:21:12 10° 1° (N) 2,511 7.5 -9.8°
Sets 17:24:54 0° 23° (NNE) 3,495 8.0 -10.5°
